This is the latest recevied weather packets stored in our database for station/object K0NV. If no packets are shown the sender has not sent any weather packets the latest 10 day(s).
| Time | Temp. | Humidity | Pressure | Rain* | Wind** | Luminosity | Snow |
|---|---|---|---|---|---|---|---|
| 1777474204 | 12.78° C | 75% | 1020.9 hPa | 0 mm | - | 684 W/m² | - |
| 1777473901 | 12.22° C | 77% | 1021.1 hPa | 0 mm | - | 571 W/m² | - |
| 1777473599 | 12.78° C | 77% | 1021.1 hPa | 0 mm | - | 506 W/m² | - |
| 1777473295 | 12.78° C | 78% | 1020.8 hPa | 0 mm | - | 534 W/m² | - |
| 1777472990 | 12.22° C | 78% | 1021 hPa | 0 mm | - | 533 W/m² | - |
| 1777472687 | 11.67° C | 81% | 1020.9 hPa | 0 mm | - | 411 W/m² | - |
| 1777472383 | 11.11° C | 83% | 1021.1 hPa | 0 mm | - | 451 W/m² | - |
| 1777472082 | 11.67° C | 81% | 1020.8 hPa | 0 mm | - | 220 W/m² | - |
| 1777471777 | 11.67° C | 81% | 1020.9 hPa | 0 mm | - | 370 W/m² | - |
| 1777471473 | 11.67° C | 83% | 1020.7 hPa | 0 mm | - | 395 W/m² | - |
| 1777471170 | 11.11° C | 83% | 1020.6 hPa | 0 mm | - | 360 W/m² | - |
| 1777470867 | 11.11° C | 85% | 1020.7 hPa | 0 mm | - | 336 W/m² | - |
| 1777470564 | 10.56° C | 85% | 1020.7 hPa | 0 mm | - | 327 W/m² | - |
| 1777470260 | 10.56° C | 86% | 1020.8 hPa | 0 mm | - | 280 W/m² | - |
| 1777469956 | 10.56° C | 87% | 1020.7 hPa | 0 mm | - | 250 W/m² | - |
| 1777469652 | 10.56° C | 89% | 1020.6 hPa | 0 mm | - | 264 W/m² | - |
| 1777469347 | 10° C | 91% | 1020.6 hPa | 0 mm | - | 242 W/m² | - |
| 1777469043 | 10° C | 94% | 1020.3 hPa | 0 mm | - | 232 W/m² | - |
| 1777468738 | 10° C | 97% | 1020.3 hPa | 0 mm | - | 222 W/m² | - |
| 1777468435 | 9.44° C | 99% | 1020.5 hPa | 0 mm | - | 197 W/m² | - |
| 1777468130 | 8.89° C | 99% | 1020.2 hPa | 0 mm | - | 183 W/m² | - |
| 1777467827 | 8.89° C | 99% | 1020.5 hPa | 0 mm | - | 108 W/m² | - |
| 1777467523 | 8.89° C | 99% | 1020.4 hPa | 0 mm | - | 194 W/m² | - |
| 1777467218 | 8.89° C | 99% | 1020.4 hPa | 0 mm | - | 95 W/m² | - |
| 1777466915 | 8.89° C | 99% | 1020.2 hPa | 0 mm | - | 81 W/m² | - |
* Rain latest hour (hover to see other rain measurements)
** Current wind speed in m/s (hover to see current wind gust speed)